Simultaneous Nadir Overpasses (SNOs) Predictions

Prediction of SNOs between GOES-14 and AQUA Satellite Orbit:

Table of predicted SNOs for the next 14.0 days since TLE Epoch: 4/15/2023
Index Date Time (GOES-14) GOES-14 Lat,Lon AQUA Lat,Lon Distance(km) Time Diff (sec)
1 04/15/2023 08:52:35 0.18,-108.15 -0.13,-106.74 161.12 80
2 04/15/2023 21:13:34 -0.17,-108.16 -0.96,-111.82 416.85 80
3 04/17/2023 20:59:45 -0.17,-108.18 -0.26,-108.45 31.61 80
4 04/19/2023 20:48:36 -0.17,-108.20 0.48,-105.08 354.37 80
5 04/20/2023 09:09:26 0.17,-108.21 0.59,-110.13 218.15 80
6 04/22/2023 08:52:56 0.17,-108.23 -0.15,-106.76 167.52 80
7 04/22/2023 21:13:54 -0.16,-108.22 -0.96,-111.83 411.83 80
8 04/24/2023 21:00:03 -0.17,-108.24 -0.21,-108.46 25.42 80
9 04/26/2023 20:48:51 -0.17,-108.25 0.52,-105.08 361.28 80
10 04/27/2023 09:09:41 0.16,-108.28 0.53,-110.13 209.50 80
